Weather observations for the past three days for
Albuquerque, Double Eagle II Airport
| Date | Time (mdt) | Wind (mph) | Vis. (mi.) | Weather | Sky Cond. | Temperature (ºF) | Relative Humidity | Wind Chill (°F) | Heat Index (°F) | Pressure | Precipitation (in) | ||||||
|---|---|---|---|---|---|---|---|---|---|---|---|---|---|---|---|---|---|
| Air | Dwpt | 6 hour | altimeter (in) | sea level (mb) | 1 hr | 3 hr | 6 hr | ||||||||||
| Max. | Min. | ||||||||||||||||
| 07 | 12:48 | N 5 | 10.00 | Fair | CLR | 62.6 | 14 | 15% | 30.14 | 0.0 | |||||||
| 07 | 11:48 | N 5 | 10.00 | Fair | CLR | 59 | 21.2 | 23% | 30.17 | 0.0 | |||||||
| 07 | 10:50 | N 8 | 10.00 | Fair | CLR | 55.4 | 21.2 | 26% | 30.19 | 0.0 | |||||||
| 07 | 09:47 | N 7 | 10.00 | Fair | CLR | 51.8 | 24.8 | 35% | 30.21 | 0.0 | |||||||
| 07 | 08:50 | N 13 | 10.00 | Fair | CLR | 48.2 | 24.8 | 40% | 43 | 30.21 | 0.0 | ||||||
| 07 | 07:47 | N 16 | 10.00 | Fair | CLR | 42.8 | 26.6 | 53% | 36 | 30.21 | 0.0 | ||||||
| 07 | 06:50 | N 13 | 10.00 | Fair | CLR | 41 | 30.2 | 66% | 34 | 30.2 | 0.0 | ||||||
| 07 | 05:50 | NW 8 | 10.00 | Fair | CLR | 37.4 | 28.4 | 70% | 32 | 30.19 | 0.0 | ||||||
| 07 | 05:30 | N 9 | 10.00 | Fair | CLR | 37 | 27.3 | 68% | 31 | 30.19 | 0.0 | ||||||
| 07 | 05:10 | N 9 | 10.00 | Fair | CLR | 38.1 | 26.2 | 62% | 32 | 30.19 | 0.0 | ||||||
| 07 | 04:50 | N 10 | 10.00 | Fair | CLR | 39 | 25.2 | 58% | 33 | 30.19 | 0.0 | ||||||
| 07 | 04:30 | N 10 | 10.00 | Fair | CLR | 39.2 | 21.9 | 50% | 33 | 30.19 | 0.0 | ||||||
| 07 | 04:10 | N 10 | 10.00 | Fair | CLR | 39 | 18.5 | 44% | 33 | 30.19 | 0.0 | ||||||
| 07 | 03:50 | N 9 | 10.00 | Fair | CLR | 37.8 | 15.8 | 41% | 32 | 30.19 | 0.0 | ||||||
| 07 | 03:30 | NW 10 | 10.00 | Fair | CLR | 39.2 | 14.9 | 37% | 33 | 30.19 | 0.0 | ||||||
| 07 | 03:10 | N 7 | 10.00 | Fair | CLR | 36.5 | 15.1 | 41% | 32 | 30.19 | 0.0 | ||||||
| 07 | 02:50 | NE 7 | 10.00 | Fair | CLR | 39.4 | 14.9 | 37% | 35 | 30.19 | 0.0 | ||||||
| 07 | 02:30 | E 6 | 10.00 | Fair | CLR | 41 | 15.3 | 35% | 38 | 30.19 | 0.0 | ||||||
| 07 | 02:10 | NW 10 | 10.00 | Fair | CLR | 42.4 | 15.4 | 33% | 37 | 30.17 | 0.0 | ||||||
| 07 | 01:50 | NW 10 | 10.00 | Fair | CLR | 41.5 | 15.6 | 35% | 36 | 30.17 | 0.0 | ||||||
| 07 | 01:30 | W 10 | 10.00 | Fair | CLR | 41 | 15.6 | 36% | 35 | 30.17 | 0.0 | ||||||
| 07 | 01:10 | NW 8 | 10.00 | Fair | CLR | 42.1 | 15.8 | 34% | 38 | 30.17 | 0.0 | ||||||
| 07 | 00:50 | NW 9 | 10.00 | Fair | CLR | 43.3 | 15.8 | 33% | 39 | 30.17 | 0.0 | ||||||
| 07 | 00:30 | NW 10 | 10.00 | Fair | CLR | 43.5 | 16.3 | 33% | 38 | 30.17 | 0.0 | ||||||
| 07 | 00:10 | NW 5 | 10.00 | Fair | CLR | 40.5 | 17.1 | 39% | 38 | 30.17 | 0.0 | ||||||
| 06 | 23:50 | NW 9 | 10.00 | Fair | CLR | 45.9 | 16.5 | 59 | 45.9 | 31% | 42 | 30.16 | 0.0 | ||||
| 06 | 23:30 | NW 12 | 10.00 | Fair | CLR | 48.2 | 15.8 | 27% | 44 | 30.16 | 0.0 | ||||||
| 06 | 23:10 | NW 9 | 10.00 | Fair | CLR | 48.9 | 16.5 | 27% | 45 | 30.16 | 0.0 | ||||||
| 06 | 22:50 | NW 10 | 10.00 | Fair | CLR | 49.5 | 18.5 | 29% | 46 | 30.15 | 0.0 | ||||||
| 06 | 22:30 | NW 10 | 10.00 | Fair | CLR | 49.1 | 22.8 | 36% | 45 | 30.15 | 0.0 | ||||||
| 06 | 22:10 | NW 8 | 10.00 | Fair | CLR | 48.2 | 26.8 | 43% | 45 | 30.15 | 0.0 | ||||||
| 06 | 21:50 | NW 7 | 10.00 | Fair | CLR | 49.3 | 28.6 | 45% | 47 | 30.13 | 0.0 | ||||||
| 06 | 21:30 | NW 7 | 10.00 | Fair | CLR | 51.4 | 28.8 | 42% | 30.12 | 0.0 | |||||||
| 06 | 21:10 | NW 8 | 10.00 | Fair | CLR | 50.9 | 29.1 | 43% | 30.11 | 0.0 | |||||||
| 06 | 20:50 | W 6 | 10.00 | Partly Cloudy | SCT090 | 50 | 28.4 | 43% | 48 | 30.09 | 0.0 | ||||||
| 06 | 19:50 | NW 12 | 10.00 | Fair | CLR | 55.4 | 30.2 | 38% | 30.07 | 0.0 | |||||||
| 06 | 18:50 | NW 17 G 23 | 10.00 | Partly Cloudy | SCT070 SCT110 | 57.2 | 32 | 39% | 30.05 | 0.0 | |||||||
| 06 | 17:50 | NW 18 G 37 | 10.00 | Light Rain | SCT022 BKN070 BKN090 | 59 | 32 | 36% | 30.03 | 0.0 | |||||||
| 06 | 16:50 | NW 22 G 28 | 10.00 | Overcast and Breezy | SCT090 OVC110 | 62.6 | 28.4 | 27% | 29.98 | 0.0 | |||||||
| 06 | 15:50 | SW 10 G 24 | 10.00 | Light Rain | SCT027 BKN090 OVC110 | 64.4 | 30.2 | 28% | 29.97 | 0.0 | |||||||
| 06 | 14:50 | SW 17 G 24 | 10.00 | Mostly Cloudy | BKN110 | 68 | 26.6 | 21% | 29.98 | 0.0 | |||||||
| 06 | 13:47 | W 16 G 23 | 10.00 | Mostly Cloudy | BKN100 | 64.4 | 26.6 | 24% | 29.98 | 0.0 | |||||||
| 06 | 12:50 | SW 6 G 26 | 10.00 | Partly Cloudy | SCT060 SCT080 | 60.8 | 28.4 | 29% | 30 | 0.0 | |||||||
| 06 | 11:47 | W 10 | 10.00 | Partly Cloudy | SCT060 SCT070 | 59 | 30.2 | 34% | 30.02 | 0.0 | |||||||
| 06 | 10:47 | W 8 | 10.00 | Fair | CLR | 55.4 | 30.2 | 38% | 30.03 | 0.0 | |||||||
| 06 | 09:47 | SW 14 | 10.00 | Fair | CLR | 51.8 | 30.2 | 44% | 30.02 | 0.0 | |||||||
| 06 | 08:47 | SW 14 | 10.00 | Fair | CLR | 48.2 | 30.2 | 50% | 43 | 30.03 | 0.0 | ||||||
| 06 | 07:47 | SW 13 | 10.00 | A Few Clouds | FEW070 | 46.4 | 32 | 57% | 41 | 30.03 | 0.0 | ||||||
| 06 | 06:47 | S 9 | 10.00 | Mostly Cloudy | BKN050 | 41 | 32 | 70% | 36 | 30.02 | 0.0 | ||||||
| 06 | 05:30 | SW 8 | 10.00 | Fair | CLR | 37.4 | 30.9 | 77% | 32 | 29.99 | 0.0 | ||||||
| 06 | 05:10 | SW 9 | 10.00 | Fair | CLR | 37.4 | 31.6 | 80% | 31 | 29.99 | 0.0 | ||||||
| 06 | 04:50 | SW 7 | 10.00 | Fair | CLR | 37.6 | 31.8 | 80% | 33 | 29.99 | 0.0 | ||||||
| 06 | 04:30 | SW 8 | 10.00 | Fair | CLR | 39.2 | 32 | 75% | 34 | 29.99 | 0.0 | ||||||
| 06 | 04:10 | SW 9 | 10.00 | Fair | CLR | 39 | 32 | 76% | 33 | 29.98 | 0.0 | ||||||
| 06 | 03:50 | SW 9 | 10.00 | Fair | CLR | 38.5 | 32.2 | 78% | 33 | 29.98 | 0.0 | ||||||
| 06 | 03:30 | SW 7 | 10.00 | Fair | CLR | 38.5 | 32.4 | 79% | 34 | 29.98 | 0.0 | ||||||
| 06 | 03:10 | SW 9 | 10.00 | Fair | CLR | 36.9 | 32.4 | 84% | 31 | 29.97 | 0.0 | ||||||
| 06 | 02:50 | W 6 | 10.00 | Fair | CLR | 38.8 | 32.4 | 78% | 35 | 29.97 | 0.0 | ||||||
| 06 | 02:30 | Calm | 10.00 | Fair | CLR | 40.6 | 33.4 | 76% | 29.98 | 0.0 | |||||||
| 06 | 02:10 | SW 8 | 10.00 | Fair | CLR | 38.7 | 33.3 | 81% | 34 | 29.98 | 0.0 | ||||||
| 06 | 01:50 | SW 3 | 10.00 | Fair | CLR | 41.2 | 34 | 76% | 29.98 | 0.0 | |||||||
| 06 | 01:30 | SE 5 | 10.00 | Fair | CLR | 41 | 34.2 | 77% | 38 | 29.98 | 0.0 | ||||||
| 06 | 01:10 | Calm | 10.00 | Fair | CLR | 39.7 | 34.2 | 81% | 29.99 | 0.0 | |||||||
| 06 | 00:50 | Calm | 10.00 | Fair | CLR | 42.1 | 35.2 | 77% | 29.99 | 0.0 | |||||||
| 06 | 00:30 | SW 7 | 10.00 | Fair | CLR | 42.1 | 35.2 | 77% | 38 | 29.99 | 0.0 | ||||||
| 06 | 00:10 | W 7 | 10.00 | Fair | CLR | 43.9 | 35.4 | 72% | 40 | 29.98 | 0.0 | ||||||
| 05 | 23:50 | W 7 | 10.00 | Partly Cloudy | SCT090 | 44.2 | 35.8 | 57.7 | 44.2 | 72% | 41 | 29.98 | 0.0 | ||||
| 05 | 23:30 | W 6 | 10.00 | Mostly Cloudy | SCT055 BKN090 | 45.5 | 36.7 | 71% | 43 | 29.97 | 0.0 | ||||||
| 05 | 23:10 | Calm | 10.00 | Overcast | BKN055 OVC090 | 45.1 | 36.9 | 73% | 29.98 | 0.0 | |||||||
| 05 | 22:50 | Calm | 10.00 | Mostly Cloudy | BKN090 BKN110 | 44.8 | 36 | 71% | 29.98 | 0.0 | |||||||
| 05 | 22:30 | Calm | 10.00 | Partly Cloudy | SCT110 | 47.3 | 36.5 | 66% | 29.97 | 0.0 | |||||||
| 05 | 22:10 | NW 6 | 10.00 | Fair | CLR | 48.2 | 36.5 | 64% | 46 | 29.96 | 0.0 | ||||||
| 05 | 21:50 | NW 13 | 10.00 | Fair | CLR | 48.6 | 37.4 | 65% | 44 | 29.96 | 0.0 | ||||||
| 05 | 21:30 | NW 13 | 10.00 | Partly Cloudy | SCT060 SCT070 SCT085 | 49.3 | 37 | 63% | 45 | 29.95 | 0.0 | ||||||
| 05 | 21:10 | NW 10 | 10.00 | Mostly Cloudy | BKN060 BKN075 BKN095 | 48.9 | 38.1 | 66% | 45 | 29.95 | 0.0 | ||||||
| 05 | 19:45 | W 8 | 10.00 | Mostly Cloudy | SCT085 BKN100 | 53.6 | 39.2 | 58% | 29.88 | 0.0 | |||||||
| 05 | 16:45 | NW 12 | 10.00 | Fair | CLR | 59 | 39.2 | 48% | 29.87 | 0.0 | |||||||
| 05 | 12:47 | W 8 | 10.00 | Showers in Vicinity | OVC036 | 53.6 | 37.4 | 54% | 29.94 | 0.0 | |||||||
| 05 | 12:18 | W 6 | 10.00 | Overcast | BKN060 OVC080 | 53.6 | 37.4 | 54% | 29.94 | 0.0 | |||||||
| 05 | 09:47 | NW 20 | 10.00 | Overcast | SCT060 OVC070 | 50 | 39.2 | 67% | 44 | 29.94 | 0.0 | ||||||
| 05 | 08:50 | NW 10 | 10.00 | Overcast | BKN046 OVC050 | 50 | 39.2 | 67% | 46 | 29.96 | 0.0 | ||||||
| 05 | 07:47 | W 9 | 10.00 | Overcast | SCT060 OVC070 | 53.6 | 30.2 | 41% | 29.96 | 0.0 | |||||||
| 05 | 06:47 | W 7 | 10.00 | Mostly Cloudy | BKN090 | 53.6 | 30.2 | 41% | 29.93 | 0.0 | |||||||
| 05 | 05:47 | W 7 | 10.00 | Mostly Cloudy | BKN110 | 53.6 | 30.2 | 41% | 29.93 | 0.0 | |||||||
| 05 | 05:35 | W 7 | 10.00 | Mostly Cloudy | BKN120 | 54.1 | 30.2 | 40% | 29.93 | 0.0 | |||||||
| 05 | 05:15 | W 9 | 10.00 | Mostly Cloudy | BKN120 | 55 | 30.2 | 39% | 29.92 | 0.0 | |||||||
| 05 | 04:55 | SW 9 | 10.00 | Partly Cloudy | SCT120 | 54.9 | 29.5 | 38% | 29.93 | 0.0 | |||||||
| 05 | 04:35 | W 9 | 10.00 | Fair | CLR | 54.7 | 28.2 | 36% | 29.93 | 0.0 | |||||||
| 05 | 03:55 | SW 8 | 10.00 | Fair | CLR | 54.7 | 27.5 | 35% | 29.93 | 0.0 | |||||||
| 05 | 03:35 | SW 6 | 10.00 | Fair | CLR | 54.3 | 28 | 36% | 29.93 | 0.0 | |||||||
| 05 | 03:15 | SW 6 | 10.00 | Partly Cloudy | SCT100 | 55.2 | 27.5 | 34% | 29.93 | 0.0 | |||||||
| 05 | 02:55 | SW 6 | 10.00 | Mostly Cloudy | BKN100 | 55.4 | 27.7 | 35% | 29.93 | 0.0 | |||||||
| 05 | 02:35 | SW 3 | 10.00 | Partly Cloudy | SCT100 | 54.9 | 28 | 36% | 29.94 | 0.0 | |||||||
| 05 | 02:15 | W 6 | 10.00 | Fair | CLR | 57.2 | 27.3 | 32% | 29.95 | 0.0 | |||||||
| 05 | 01:55 | W 7 | 10.00 | Fair | CLR | 57.2 | 27.5 | 32% | 29.96 | 0.0 | |||||||
| 05 | 01:35 | W 12 | 10.00 | Fair | CLR | 58.1 | 27.3 | 31% | 29.96 | 0.0 | |||||||
| 05 | 01:15 | W 16 G 21 | 10.00 | Fair | CLR | 58.8 | 27.1 | 30% | 29.94 | 0.0 | |||||||
| 05 | 00:55 | SW 16 | 10.00 | Fair | CLR | 59.4 | 27 | 29% | 29.94 | 0.0 | |||||||
| 05 | 00:35 | W 14 | 10.00 | Fair | CLR | 59.9 | 26.2 | 28% | 29.94 | 0.0 | |||||||
| 05 | 00:15 | W 16 | 10.00 | Fair | CLR | 61 | 25.7 | 26% | 29.94 | 0.0 | |||||||
| 04 | 23:55 | W 13 | 7.00 | Fair | CLR | 61.2 | 24.8 | 71.1 | 61.2 | 25% | 29.94 | 0.0 | |||||
| 04 | 23:35 | W 14 | 10.00 | Fair | CLR | 61.7 | 23.9 | 24% | 29.94 | 0.0 | |||||||
| 04 | 23:15 | W 20 | 10.00 | Fair | CLR | 62.4 | 23.4 | 22% | 29.93 | 0.0 | |||||||
| 04 | 22:55 | W 13 | 10.00 | Partly Cloudy | SCT120 | 62.6 | 23 | 22% | 29.93 | 0.0 | |||||||
| 04 | 22:35 | W 17 G 21 | 10.00 | Fair | CLR | 63.5 | 22.8 | 21% | 29.92 | 0.0 | |||||||
| 04 | 22:15 | W 15 | 10.00 | Fair | CLR | 63.9 | 22.5 | 20% | 29.92 | 0.0 | |||||||
| 04 | 21:55 | W 13 | 10.00 | Fair | CLR | 64.4 | 22.3 | 20% | 29.92 | 0.0 | |||||||
| 04 | 21:35 | W 9 | 10.00 | Fair | CLR | 64 | 23.7 | 21% | 29.92 | 0.0 | |||||||
| 04 | 21:15 | W 12 | 10.00 | Fair | CLR | 65.1 | 23.4 | 20% | 29.9 | 0.0 | |||||||
| 04 | 20:47 | W 16 | 10.00 | Fair | CLR | 66.2 | 23 | 19% | 29.9 | 0.0 | |||||||
| 04 | 19:47 | W 20 G 28 | 10.00 | Fair | CLR | 68 | 21.2 | 17% | 29.89 | 0.0 | |||||||
| 04 | 18:47 | W 15 | 10.00 | Partly Cloudy | SCT090 | 69.8 | 21.2 | 16% | 29.87 | 0.0 | |||||||
| 04 | 17:47 | W 21 G 25 | 10.00 | Partly Cloudy and Breezy | SCT090 | 71.6 | 17.6 | 13% | 29.88 | 0.0 | |||||||
| 04 | 16:47 | W 23 G 28 | 10.00 | Fair and Breezy | CLR | 71.6 | 10.4 | 9% | 29.89 | 0.0 | |||||||
| 04 | 14:50 | SW 17 G 28 | 10.00 | Fair | CLR | 75.2 | 12.2 | 9% | 75 | 29.94 | 0.0 | ||||||
| 04 | 13:50 | SW 15 G 25 | 10.00 | Fair | CLR | 71.6 | 19.4 | 14% | 29.97 | 0.0 | |||||||
| Date | Time (mdt) | Wind (mph) | Vis. (mi.) | Weather | Sky Cond. | Air | Dwpt | Max. | Min. | Relative Humidity | Wind Chill (°F) | Heat Index (°F) | altimeter (in) | sea level (mb) | 1 hr | 3 hr | 6 hr |
| 6 hour | |||||||||||||||||
| Temperature (ºF) | Pressure | Precipitation (in) | |||||||||||||||